Wind_Speed
19 18 12 1 1 0 2 3 2 4 4 1 5 2 7 4 2 2 12 12 18 19 15 12 12 11 11 11 11 11 11 11 12 11 12 12 11 11 11 11 10 9 9 8 8 7 6 5 5
20 12 1 0 2 1 2 3 7 4 5 12 7 4 5 4 3 9 9 19 19 18 15 13 12 11 10 12 11 11 11 12 11 11 11 11 11 10 9 9 9 8 7 6 5 4 3 2 1
15 2 2 2 1 2 2 4 6 11 8 4 5 5 3 2 7 12 12 20 19 18 16 13 12 11 11 11 11 11 11 9 10 10 9 9 9 9 8 8 8 7 5 4 4 2 1 1 3
6 1 2 2 5 2 3 8 10 10 5 7 9 8 5 5 8 8 24 20 19 17 15 13 12 12 11 10 11 10 9 9 9 7 8 8 8 8 7 5 5 4 3 3 2 1 3 4 5
1 1 3 3 5 3 6 10 11 5 6 7 2 3 4 2 10 22 21 20 20 18 14 12 11 13 11 10 10 9 9 9 8 6 7 6 5 4 3 3 2 1 1 0 2 4 4 4 4
1 1 4 3 5 5 3 9 8 5 6 7 6 5 2 9 23 22 20 19 17 17 15 12 13 12 12 9 10 9 9 8 6 4 4 4 4 3 1 0 1 1 1 2 4 5 5 5 3
1 3 4 3 3 2 5 7 5 6 6 2 10 5 3 7 22 23 19 18 17 16 14 13 11 11 10 9 9 8 7 7 6 3 1 2 2 1 3 3 2 2 2 2 4 6 6 7 3
1 2 0 3 1 1 5 2 5 6 4 11 7 7 6 11 24 21 18 17 16 15 13 12 11 12 11 10 7 8 5 4 3 1 1 1 0 2 3 3 2 3 4 3 3 3 5 6 1
1 3 2 4 7 4 5 5 2 6 12 4 4 6 13 27 26 21 18 16 15 13 13 12 12 11 10 9 8 6 5 3 2 3 5 2 1 2 4 4 3 7 6 4 2 3 4 5 2
2 1 5 6 6 3 10 8 9 4 7 3 6 13 28 26 23 19 16 13 16 15 14 12 11 10 10 9 7 5 3 2 3 5 6 5 6 5 6 4 3 3 4 5 3 1 3 3 4
3 4 5 3 8 8 8 6 5 9 4 6 15 18 21 23 19 18 18 22 21 16 14 14 12 11 10 9 6 5 4 3 4 5 5 8 8 8 8 6 5 5 5 4 4 5 3 4 3
4 11 6 5 5 6 8 7 4 7 5 11 16 20 18 18 17 18 18 20 17 17 15 14 13 12 10 7 6 4 4 4 5 5 5 6 8 7 9 10 9 7 5 4 3 3 3 2 1
3 5 10 6 7 6 8 4 0 4 6 16 17 17 16 13 17 17 23 21 18 18 16 15 14 12 9 6 4 3 3 4 4 4 7 7 8 10 10 11 12 9 4 7 5 4 4 3 4
4 4 3 6 7 5 6 2 4 3 12 16 19 17 14 14 18 15 18 21 21 19 17 15 15 11 9 6 3 2 5 4 4 6 9 8 8 10 8 8 12 14 9 7 5 4 3 3 2
2 4 7 9 3 4 10 2 3 6 12 17 15 13 12 10 15 17 21 24 24 21 18 18 16 13 10 6 6 4 4 5 4 6 6 7 9 7 8 9 9 11 8 7 7 8 7 3 2
5 4 4 2 4 4 6 6 3 11 16 15 16 13 11 7 14 17 25 25 24 22 21 18 15 13 10 8 9 5 4 5 5 5 5 6 7 5 5 6 7 10 10 8 5 6 9 6 1
6 3 2 1 5 7 5 5 6 12 14 14 14 15 13 9 11 15 24 27 25 24 22 19 17 15 12 12 10 6 4 5 4 5 6 6 6 7 5 7 7 8 9 8 8 8 9 8 3
3 2 1 3 2 3 5 3 5 11 13 16 16 15 16 15 14 21 23 27 25 25 24 20 20 18 15 13 12 7 7 5 7 4 3 3 5 6 5 6 5 5 8 9 10 12 14 16 12
4 2 3 3 5 5 6 5 13 15 9 12 14 15 15 19 20 22 24 26 28 29 27 25 24 24 20 17 13 8 8 7 9 7 4 3 2 2 3 4 4 3 7 9 6 8 8 9 9
3 1 5 5 4 5 4 10 8 15 17 20 19 17 17 14 13 18 26 28 29 31 33 29 29 28 24 21 17 12 10 9 9 10 7 4 2 3 3 4 4 4 6 7 6 4 3 7 4
3 4 3 5 4 2 3 6 4 9 10 12 13 16 17 19 17 16 22 27 30 30 33 34 34 31 27 24 20 14 11 8 6 12 10 7 4 3 1 3 4 3 4 5 6 6 2 2 9
5 7 3 4 3 3 3 5 5 7 17 15 15 16 17 18 17 14 21 24 30 33 33 36 37 32 29 27 24 20 15 12 11 14 11 6 6 3 1 1 2 3 2 3 5 5 3 0 4
9 4 5 3 4 2 3 0 7 5 5 14 20 20 20 20 19 19 22 29 30 31 35 38 37 33 32 30 27 22 17 13 10 13 11 8 6 5 4 3 2 3 3 3 4 4 5 3 2
4 3 6 5 4 1 7 6 7 5 9 9 19 22 22 21 21 17 27 28 29 30 33 38 38 36 32 33 30 25 21 15 12 12 11 10 9 7 5 6 6 5 2 2 1 1 3 4 4
6 6 2 3 1 5 2 5 13 8 11 11 18 23 25 23 20 19 19 24 27 30 33 35 38 39 34 32 31 30 26 20 17 15 11 9 10 8 5 7 10 8 5 4 3 1 2 3 4
6 9 6 6 3 4 3 6 7 10 10 7 13 21 22 23 21 21 20 28 31 32 33 34 36 38 39 35 32 31 30 27 23 18 15 10 10 9 6 9 9 10 8 6 5 4 2 1 2
4 4 6 5 1 2 4 7 9 9 9 4 6 11 18 22 22 23 22 30 33 35 36 37 37 39 41 41 37 33 32 31 29 24 20 16 11 11 8 6 8 10 10 10 7 6 5 3 2
8 8 3 3 6 5 5 5 6 7 7 2 5 10 16 19 19 19 19 30 33 36 38 37 39 42 43 42 41 38 35 33 32 27 24 21 18 13 10 9 10 11 12 12 10 9 9 8 6
2 3 5 5 5 6 2 8 7 10 11 8 8 13 16 20 20 20 20 31 36 36 36 38 37 36 36 41 42 40 38 36 34 32 28 24 21 18 15 14 12 13 15 15 14 13 12 11 9
5 10 10 6 6 3 4 13 5 9 5 6 9 13 12 16 17 16 16 24 29 35 36 38 38 38 38 43 41 43 41 38 37 35 33 28 25 23 20 18 15 15 17 19 18 17 16 15 14
Wind_Direction
141 155 149 186 118 161 71 58 38 100 108 117 131 155 127 57 60 182 149 144 148 152 153 146 140 133 124 120 115 115 112 111 110 112 104 108 105 104 115 111 114 117 117 119 129 127 123 118 113
143 144 190 291 43 40 71 77 93 70 107 102 90 85 41 70 76 115 126 149 145 146 146 145 140 130 123 128 122 117 120 117 113 111 109 110 105 107 112 115 121 115 121 122 111 100 98 100 102
142 228 37 36 289 49 98 116 112 126 147 102 105 51 77 70 97 137 161 148 142 139 140 139 144 138 130 125 132 127 120 116 117 109 108 108 111 109 110 118 123 127 120 90 80 63 40 319 303
156 114 54 56 349 350 97 136 134 133 83 69 110 80 80 88 144 160 156 150 146 144 145 152 145 133 137 132 127 127 120 117 112 113 112 110 112 112 111 120 129 122 111 83 56 351 293 283 301
252 232 68 32 329 313 89 127 144 139 98 102 77 98 68 41 135 148 157 153 147 146 148 147 143 140 138 138 129 127 126 128 127 128 123 122 117 113 125 142 136 150 112 4 258 249 266 303 310
287 253 56 15 317 1 75 135 136 86 95 132 97 100 100 145 143 155 160 157 154 149 145 153 151 146 146 139 134 139 138 133 130 123 126 112 105 93 131 66 29 350 7 317 279 280 296 300 319
66 81 146 190 319 22 135 137 133 124 131 126 140 91 105 153 156 159 160 159 156 153 155 153 156 149 133 128 132 136 139 129 111 119 107 86 64 0 308 304 320 332 355 321 307 305 309 316 320
137 97 226 149 212 239 157 88 140 126 103 128 146 155 167 172 162 160 158 159 159 159 163 158 156 150 139 134 141 133 126 126 122 91 231 336 321 313 311 333 5 3 39 30 333 334 331 346 318
304 53 284 191 171 203 141 139 81 99 136 161 145 141 145 153 161 154 151 157 163 167 171 163 160 154 145 143 144 143 137 110 67 34 59 93 57 8 76 59 35 41 52 59 14 313 333 7 34
118 315 224 172 178 159 164 161 139 120 144 117 84 105 129 143 150 147 151 162 175 178 177 170 159 158 153 150 156 159 137 102 70 53 72 84 77 64 50 63 51 52 76 66 50 359 345 20 23
176 220 267 232 148 119 151 145 151 127 195 184 154 145 143 147 156 161 164 174 179 181 181 174 163 162 161 156 162 155 118 90 67 77 84 79 65 53 55 49 52 52 60 54 42 41 0 1 11
192 237 247 294 143 144 152 140 157 157 201 144 153 153 149 157 165 171 164 174 179 183 179 174 166 169 170 165 166 148 117 96 85 79 71 78 63 56 58 59 61 71 83 68 27 352 333 326 329
251 264 217 215 139 106 115 95 230 149 82 128 140 153 155 162 167 175 175 175 178 179 181 180 174 177 178 176 177 174 131 115 90 81 100 81 63 67 62 56 48 44 100 59 76 88 53 354 276
185 312 91 150 129 135 116 82 140 68 126 131 149 157 163 166 167 165 170 179 185 185 185 182 183 183 196 201 205 171 140 131 94 97 105 70 63 72 69 55 46 44 48 40 64 85 60 23 336
5 64 53 107 133 110 105 7 206 144 140 141 154 155 163 169 165 171 180 185 187 188 187 191 196 201 211 224 224 182 142 159 131 111 96 74 68 64 70 70 53 37 38 35 70 70 52 36 336
49 31 71 240 143 160 103 264 124 150 145 155 157 162 167 172 182 184 185 193 190 190 196 197 205 207 211 212 171 157 155 142 142 110 99 91 58 65 82 59 62 50 39 42 47 45 29 19 295
7 144 72 85 230 153 169 214 178 164 156 160 170 170 172 183 183 191 195 195 192 194 197 202 205 205 199 186 177 178 184 176 168 128 119 103 72 65 69 77 67 56 48 59 59 47 42 32 64
169 72 342 186 246 166 221 256 168 171 171 174 175 181 179 186 198 192 200 201 199 201 202 204 206 199 191 187 187 198 192 204 203 179 156 128 92 86 79 69 53 50 51 63 61 65 69 66 83
139 133 252 258 205 164 225 211 187 185 183 185 188 187 195 191 188 191 198 210 210 206 205 202 202 197 192 188 187 198 204 198 202 205 198 183 145 112 89 53 38 70 53 50 64 62 80 86 82
122 159 276 291 216 167 212 257 187 181 198 193 189 191 195 198 177 177 190 198 204 204 209 206 202 199 200 200 198 203 207 220 232 214 209 208 185 112 91 69 61 71 43 46 57 44 45 53 69
149 173 225 237 360 264 113 294 179 210 221 208 209 200 192 193 190 183 185 188 199 203 208 210 205 203 205 204 198 199 198 210 209 200 215 215 203 160 136 57 53 62 35 42 44 34 35 110 53
236 215 199 255 69 233 133 275 263 189 210 206 203 203 201 198 195 192 185 185 191 202 209 207 206 208 207 204 200 202 202 203 217 211 215 215 205 184 219 257 26 27 22 29 31 40 40 239 148
227 178 219 207 209 38 201 74 272 109 195 220 211 206 202 199 196 185 188 187 193 196 199 203 205 209 205 204 203 206 213 217 227 212 214 227 223 217 246 259 272 338 350 350 13 44 60 119 162
117 107 39 51 101 258 228 167 273 194 207 225 214 209 202 196 196 191 190 183 185 190 193 196 204 206 205 203 206 211 215 213 213 207 229 243 231 243 245 269 256 266 294 299 298 65 53 93 122
105 85 318 327 345 219 180 160 241 264 242 221 197 206 201 194 191 185 183 183 182 184 190 195 201 205 205 203 210 214 215 217 220 222 235 258 234 229 260 272 254 243 252 266 284 291 46 83 130
170 150 155 196 209 261 139 218 253 236 275 229 200 203 193 190 189 190 186 183 184 186 190 194 199 205 207 207 211 213 216 221 227 229 234 252 236 232 248 283 242 235 253 254 257 265 278 43 106
187 143 188 118 26 17 250 283 301 275 276 313 238 183 188 189 190 188 185 186 185 185 190 194 199 205 209 211 212 216 217 223 228 231 235 237 242 248 246 245 214 228 248 248 251 255 248 248 236
159 169 89 357 173 251 277 266 238 303 295 232 179 185 184 189 190 189 186 186 189 190 188 194 201 203 210 212 214 217 219 223 229 234 237 238 239 241 233 226 222 235 243 240 245 247 240 238 240
144 162 59 135 153 188 188 254 213 243 262 214 205 195 192 190 188 188 189 189 189 189 188 192 197 203 204 211 215 219 221 225 229 234 239 240 239 236 233 234 239 245 244 239 239 243 242 239 240
185 181 184 206 246 227 187 257 256 244 283 233 224 206 195 192 192 191 188 192 188 190 190 192 196 198 205 211 212 219 223 225 230 234 238 239 240 238 240 244 245 254 246 237 240 241 243 239 235
Height
764 765 767 768 781 780 788 787 776 784 783 776 776 783 791 795 801 816 799 800 803 806 810 811 813 815 816 817 818 819 819 819 819 820 820 821 821 821 821 820 820 820 820 820 819 818 818 818 817
764 767 768 769 782 792 794 780 784 779 778 777 779 785 792 802 795 799 802 802 805 808 811 813 814 816 818 819 820 820 820 821 821 822 822 822 822 822 822 822 821 822 821 821 822 822 822 821 821
766 768 772 777 785 791 794 778 780 778 774 776 786 785 791 801 799 801 801 804 807 810 812 814 816 818 819 820 821 822 823 823 823 823 823 823 823 823 823 823 822 822 822 824 825 824 823 823 824
767 769 773 786 787 774 776 775 773 777 776 777 782 796 794 797 800 800 804 806 808 812 814 816 817 819 820 822 824 824 825 825 826 825 824 824 824 825 825 824 824 825 825 826 826 825 824 824 824
769 769 785 791 789 772 766 767 770 777 777 781 782 800 801 800 800 802 805 808 810 813 816 817 819 820 822 823 825 826 827 826 826 826 825 825 826 827 826 825 826 826 827 826 825 824 824 825 825
771 771 792 799 789 774 768 764 769 777 778 783 789 795 803 801 801 804 808 811 812 814 817 818 820 821 823 825 827 827 828 828 828 828 826 827 827 827 826 826 828 828 829 827 825 825 825 825 827
770 778 790 789 787 779 770 764 771 779 783 785 782 799 803 803 803 805 809 813 814 815 818 819 821 823 824 826 828 828 829 830 830 829 829 829 828 827 828 828 828 828 829 827 826 826 826 825 827
766 773 785 783 784 782 768 768 766 772 782 778 780 798 804 800 804 807 811 814 815 817 819 820 822 824 825 828 828 829 831 831 831 829 832 829 828 828 829 829 828 828 829 828 826 826 825 826 826
760 785 792 780 783 773 766 771 768 769 778 778 781 784 787 796 803 808 812 816 817 817 819 820 822 825 827 828 829 831 832 832 832 830 831 830 829 829 829 828 827 828 830 829 827 826 826 826 825
773 787 772 757 762 764 764 764 769 777 782 784 786 785 791 798 803 808 811 815 817 818 819 821 823 826 827 829 831 832 832 833 833 831 831 830 830 829 829 829 829 829 830 829 829 828 827 827 827
771 781 754 746 752 755 765 768 764 777 789 781 787 790 792 798 804 807 810 812 815 817 820 821 824 827 828 831 832 833 833 833 833 832 831 831 831 830 831 830 830 830 830 830 830 829 829 828 828
772 756 749 744 744 755 765 763 771 772 774 771 782 786 790 796 801 805 808 812 815 818 820 822 825 828 829 831 833 834 835 835 834 833 832 832 832 832 831 831 830 830 830 830 829 829 829 829 829
765 748 745 742 746 755 757 768 770 774 769 772 781 789 793 799 801 805 807 811 815 818 821 823 826 828 829 831 833 835 835 836 836 835 834 834 834 833 833 832 832 831 830 830 830 830 829 829 828
751 746 742 746 751 753 762 769 767 777 773 778 783 789 794 797 800 805 809 812 815 817 821 823 826 827 830 832 833 835 836 837 837 836 836 835 835 835 835 835 834 832 832 831 831 831 831 830 828
749 758 752 753 755 761 758 778 777 774 776 782 788 791 795 799 801 803 808 812 814 818 821 823 825 828 829 832 834 835 836 838 838 838 838 837 837 837 837 836 836 834 833 832 832 831 831 830 829
763 764 783 759 757 762 762 793 775 774 778 786 787 791 795 799 801 804 806 811 814 818 820 823 825 827 829 831 834 835 837 838 839 839 839 839 839 839 839 838 838 836 835 833 833 832 832 831 830
780 791 780 774 756 762 767 784 773 772 775 784 787 787 791 797 799 803 805 810 813 816 820 822 825 827 829 831 834 836 837 838 840 841 841 841 841 840 840 840 840 839 837 836 835 834 833 831 831
790 786 780 780 766 764 775 776 776 772 774 778 782 785 786 790 793 798 803 808 812 815 818 821 824 827 829 831 833 835 837 838 839 841 842 843 843 842 842 841 841 840 839 837 837 837 836 834 834
773 779 783 774 760 768 772 775 776 773 778 780 781 782 785 782 785 794 800 805 809 813 816 819 823 826 829 831 833 834 836 837 838 840 842 843 843 844 844 843 842 841 840 839 839 839 837 837 837
773 780 783 770 761 769 774 772 767 769 767 767 770 776 777 783 785 789 795 799 804 808 812 816 820 824 827 830 832 834 836 837 838 840 841 843 844 845 845 844 843 843 842 840 839 839 839 839 838
777 784 782 779 768 764 771 778 769 767 766 769 767 767 769 773 779 784 788 792 798 803 806 811 815 821 825 828 831 833 835 837 837 839 840 842 844 845 845 844 844 844 844 843 842 841 840 840 840
788 768 769 771 783 803 770 809 772 767 769 767 767 765 766 767 770 779 782 787 790 796 802 807 812 817 822 825 828 831 833 835 837 838 840 842 844 845 845 845 845 845 844 844 843 842 841 841 841
773 759 768 770 783 786 784 802 777 765 774 765 756 756 756 759 764 769 774 778 784 791 796 802 809 814 818 822 825 829 831 833 835 837 839 841 843 844 844 844 845 845 845 845 844 844 843 842 842
751 762 778 790 796 818 785 792 780 768 756 748 743 744 747 751 756 763 768 774 780 787 793 798 805 810 815 818 822 825 829 832 833 836 838 839 841 842 843 843 844 844 845 845 845 845 844 843 843
762 787 820 817 823 817 775 792 761 738 730 727 731 730 734 741 750 756 763 769 775 781 788 794 800 806 810 814 819 822 825 829 831 834 836 837 839 840 842 842 842 843 844 845 844 844 844 844 844
770 780 815 823 825 804 781 792 756 722 714 714 714 713 723 732 739 747 754 760 768 775 782 789 794 800 805 809 814 818 822 825 827 831 834 836 837 839 840 840 840 843 843 844 845 844 845 844 844
766 784 770 794 802 810 791 762 733 718 713 711 713 713 720 726 731 737 747 754 761 767 775 782 788 794 798 803 808 813 817 820 823 827 831 833 835 837 838 839 840 842 842 843 845 845 845 844 844
751 757 787 809 812 818 799 784 764 731 721 717 717 717 716 720 729 735 740 747 754 760 767 777 782 786 792 798 802 806 811 815 819 823 826 829 832 835 837 838 839 840 840 842 844 844 844 843 843
760 768 780 782 795 803 807 775 735 723 713 717 716 710 711 713 718 725 731 738 745 754 761 768 775 782 787 792 796 801 805 809 814 817 821 825 828 831 833 835 837 837 838 840 841 842 842 842 843
743 756 758 780 792 797 794 752 714 711 711 710 708 705 706 708 714 722 729 737 741 746 753 758 766 773 779 784 790 794 799 804 807 811 815 819 823 827 829 831 833 834 835 837 838 838 839 840 840